EFW4SS EGKK-LIMF

Flight info

Callsign EFW4SS
Flight time N/A
Altitude 35000
Route SFD4Z SFD Y47 BENBO L612 XAMAB UL612 OGULO DCT OKASI DCT OKEKO DCT MOU DCT MADIV DCT MOKIP DCT TUFTA DCT GEVEA DCT MOBLO DCT LURAG M135 VEROB VEROB2F
Aircraft A320/M-SDE3FGIJ1KRWXY/S

Departure

Time N/A
Airport London Gatwick Airport (EGKK)

Arrival

Time 2026-05-06 20:54
Airport Turin Airport (LIMF)
Time Latitude Longitude Altitude Speed Heading
2026-05-06 20:36 45.55978 7.04767 27666 ft 436 kts 138°
2026-05-06 20:36 45.53735 7.07664 27038 ft 434 kts 138°
2026-05-06 20:36 45.51501 7.10544 26407 ft 431 kts 138°
2026-05-06 20:37 45.49282 7.13412 25787 ft 429 kts 138°
2026-05-06 20:37 45.47077 7.16272 25162 ft 427 kts 138°
2026-05-06 20:37 45.44888 7.19116 24538 ft 425 kts 137°
2026-05-06 20:37 45.42739 7.21906 23918 ft 422 kts 138°
2026-05-06 20:38 45.40577 7.24714 23291 ft 420 kts 137°
2026-05-06 20:38 45.38423 7.27511 22672 ft 418 kts 138°
2026-05-06 20:38 45.36276 7.30290 22039 ft 415 kts 138°
2026-05-06 20:38 45.34140 7.33043 21407 ft 414 kts 138°
2026-05-06 20:39 45.32009 7.35785 20785 ft 412 kts 138°
2026-05-06 20:39 45.29894 7.38515 20157 ft 409 kts 136°
2026-05-06 20:39 45.27959 7.41472 19540 ft 407 kts 132°
2026-05-06 20:39 45.26079 7.44465 18904 ft 405 kts 132°
2026-05-06 20:40 45.24205 7.47375 18273 ft 403 kts 136°
2026-05-06 20:40 45.21916 7.49626 17645 ft 400 kts 156°
2026-05-06 20:40 45.19257 7.50655 17026 ft 397 kts 175°
2026-05-06 20:40 45.16507 7.50626 16407 ft 393 kts 182°
2026-05-06 20:41 45.13789 7.50458 15778 ft 390 kts 183°
2026-05-06 20:41 45.11095 7.50283 15134 ft 382 kts 183°
2026-05-06 20:41 45.08510 7.50116 14502 ft 362 kts 183°
2026-05-06 20:41 45.06056 7.49962 13892 ft 345 kts 183°
2026-05-06 20:42 45.03701 7.49815 13267 ft 332 kts 183°
2026-05-06 20:42 45.01428 7.49676 12643 ft 322 kts 183°
2026-05-06 20:42 44.99225 7.49543 12137 ft 309 kts 182°
2026-05-06 20:42 44.97153 7.49419 11996 ft 287 kts 183°
2026-05-06 20:43 44.95210 7.49300 12010 ft 277 kts 183°
2026-05-06 20:43 44.93289 7.49183 12008 ft 276 kts 183°
2026-05-06 20:43 44.91369 7.49067 12006 ft 275 kts 183°
2026-05-06 20:43 44.89463 7.48952 11743 ft 273 kts 183°
2026-05-06 20:44 44.87567 7.48835 11440 ft 272 kts 183°
2026-05-06 20:44 44.85698 7.48716 11146 ft 271 kts 183°
2026-05-06 20:44 44.83820 7.48684 10856 ft 270 kts 172°
2026-05-06 20:44 44.82170 7.49755 10732 ft 260 kts 136°
2026-05-06 20:45 44.81296 7.51893 10603 ft 251 kts 101°
2026-05-06 20:45 44.81274 7.54318 10387 ft 247 kts 87°
2026-05-06 20:45 44.81267 7.56730 10108 ft 246 kts 92°
2026-05-06 20:45 44.81228 7.59133 9832 ft 245 kts 82°
2026-05-06 20:46 44.81878 7.61299 9565 ft 241 kts 47°
2026-05-06 20:46 44.83250 7.62552 9140 ft 237 kts 13°
2026-05-06 20:46 44.84887 7.62773 8624 ft 237 kts
2026-05-06 20:46 44.86533 7.62868 8150 ft 237 kts
2026-05-06 20:47 44.88175 7.62963 7686 ft 235 kts
2026-05-06 20:47 44.89803 7.63059 7240 ft 233 kts
2026-05-06 20:47 44.91421 7.63155 6729 ft 233 kts
2026-05-06 20:47 44.93061 7.63255 6102 ft 239 kts
2026-05-06 20:48 44.94722 7.63359 5655 ft 236 kts
2026-05-06 20:48 44.96338 7.63462 5318 ft 228 kts
2026-05-06 20:48 44.97892 7.63560 5016 ft 219 kts
2026-05-06 20:48 44.99369 7.63653 4735 ft 211 kts
2026-05-06 20:49 45.00809 7.63744 4459 ft 203 kts
2026-05-06 20:49 45.02196 7.63831 4195 ft 195 kts
2026-05-06 20:49 45.03525 7.63915 3944 ft 187 kts
2026-05-06 20:49 45.04793 7.63995 3725 ft 177 kts
2026-05-06 20:50 45.05996 7.64071 3480 ft 167 kts
2026-05-06 20:50 45.07081 7.64140 3260 ft 148 kts
2026-05-06 20:50 45.08082 7.64203 3064 ft 141 kts
2026-05-06 20:50 45.09052 7.64265 2880 ft 138 kts
2026-05-06 20:51 45.10012 7.64325 2698 ft 137 kts
2026-05-06 20:51 45.10965 7.64385 2515 ft 137 kts
2026-05-06 20:51 45.11915 7.64445 2339 ft 136 kts
2026-05-06 20:51 45.12861 7.64505 2155 ft 136 kts
2026-05-06 20:52 45.13805 7.64565 1975 ft 135 kts
2026-05-06 20:52 45.14734 7.64624 1799 ft 135 kts
2026-05-06 20:52 45.15674 7.64683 1625 ft 135 kts
2026-05-06 20:52 45.16612 7.64743 1441 ft 135 kts
2026-05-06 20:53 45.17547 7.64802 1261 ft 134 kts
2026-05-06 20:53 45.18478 7.64858 1100 ft 134 kts
2026-05-06 20:53 45.19406 7.64917 991 ft 128 kts
2026-05-06 20:53 45.20089 7.64962 984 ft 57 kts
2026-05-06 20:54 45.20397 7.64979 983 ft 36 kts
2026-05-06 20:54 45.20645 7.64993 988 ft 36 kts
2026-05-06 20:54 45.20818 7.64985 985 ft 18 kts 336°
2026-05-06 20:54 45.20878 7.64866 987 ft 12 kts 278°
2026-05-06 20:55 45.20847 7.64754 987 ft 14 kts 208°
2026-05-06 20:55 45.20739 7.64738 986 ft 17 kts 183°
2026-05-06 20:55 45.20657 7.64733 991 ft 8 kts 183°
2026-05-06 20:55 45.20643 7.64732 986 ft 1 kts 183°
2026-05-06 20:56 45.20622 7.64730 994 ft 5 kts 182°
2026-05-06 20:56 45.20579 7.64728 989 ft 8 kts 182°
2026-05-06 20:56 45.20513 7.64724 987 ft 11 kts 182°
2026-05-06 20:56 45.20423 7.64719 986 ft 15 kts 182°
2026-05-06 20:57 45.20307 7.64712 986 ft 18 kts 183°
2026-05-06 20:57 45.20166 7.64701 989 ft 22 kts 182°
2026-05-06 20:57 45.20003 7.64690 989 ft 25 kts 183°
2026-05-06 20:57 45.19837 7.64680 985 ft 22 kts 178°
2026-05-06 20:58 45.19723 7.64689 985 ft 9 kts 182°
2026-05-06 20:58 45.19681 7.64686 988 ft 6 kts 182°
2026-05-06 20:58 45.19626 7.64684 986 ft 10 kts 181°
2026-05-06 20:58 45.19548 7.64681 986 ft 12 kts 179°
2026-05-06 20:59 45.19459 7.64679 986 ft 14 kts 184°
2026-05-06 20:59 45.19361 7.64662 986 ft 14 kts 209°
2026-05-06 20:59 45.19329 7.64555 990 ft 7 kts 256°
2026-05-06 20:59 45.19326 7.64533 986 ft 2 kts 256°
2026-05-06 21:00 45.19324 7.64525 986 ft 1 kts 255°
2026-05-06 21:00 45.19322 7.64516 986 ft 0 kts 254°